User: anonymous   Login
Location: Gombori
(14.9797°N, 2.9419°W)
Time: 09:20:56
(UTC+00:00)
Language:

CZ-4 R/B - Orbit

View from above orbital plane
View from above orbital plane
View from above satellite
View from above satellite

Ground track
Ground track

The orbit data is extracted from the following two-line orbital elements,

1 29507U 06046C   22275.80046815  .00001775  00000-0  13731-3 0  9997
2 29507  97.7207 305.4416 0042488 228.5302 131.2271 15.02105803871039
Epoch (UTC): 02 October 2022 19:12:40
Eccentricity: 0.0042488
inclination: 97.7207°
perigee height: 531 km
apogee height: 590 km
right ascension of ascending node: 305.4416°
argument of perigee: 228.5302°
revolutions per day: 15.02105803
mean anomaly at epoch: 131.2271°
orbit number at epoch: 87103

The dashed part of the orbit path shows where the satellite is in the earth's shadow,  

DLR